When you browse on this site, cookies collect data to enhance your experience and personalize the content and advertising you see.
Visit our Privacy Policy to learn more. By continuing to use the site, you agree to this use of cookies and data.
  • En España
  • Lista de países
  • Para 7 días
  • Temperatura del agua
  • Mapa Satelital
  • El tiempo en el mapa
  • Informadores
  • user-avatar
    Iniciar sesión

    Tiempo cada hora Shmygalovka

    Hoy, 23 Marzo, Sábado

    Tiempo Temperatura Precipitaciones Viento Presión Humedad
    00:00 -5°C° 0.1 mm 6 mps 741 mmHg 86%
    01:00 -4°C° 0.1 mm 6 mps 741 mmHg 87%
    02:00 -4°C° 0 mm 5 mps 741 mmHg 90%
    03:00 -4°C° 0 mm 5 mps 741 mmHg 90%
    04:00 -4°C° 0 mm 5 mps 741 mmHg 90%
    05:00 -3°C° 0 mm 6 mps 742 mmHg 91%
    06:00 -3°C° 0.1 mm 6 mps 743 mmHg 91%
    07:00 -3°C° 0.1 mm 6 mps 743 mmHg 92%
    08:00 -2°C° 0 mm 6 mps 744 mmHg 92%
    09:00 -2°C° 0 mm 6 mps 745 mmHg 92%
    10:00 -2°C° 0 mm 6 mps 745 mmHg 92%
    11:00 -2°C° 0 mm 6 mps 746 mmHg 92%
    12:00 -1°C° 0.1 mm 5 mps 746 mmHg 92%
    13:00 -1°C° 0.1 mm 5 mps 747 mmHg 92%
    14:00 -1°C° 0.1 mm 5 mps 747 mmHg 91%
    15:00 -1°C° 0 mm 4 mps 747 mmHg 90%
    16:00 -1°C° 0 mm 4 mps 747 mmHg 88%
    17:00 -1°C° 0 mm 4 mps 747 mmHg 86%
    18:00 -1°C° 0 mm 3 mps 747 mmHg 87%
    19:00 -1°C° 0 mm 3 mps 748 mmHg 88%
    20:00 -1°C° 0 mm 3 mps 748 mmHg 89%
    21:00 -1°C° 0 mm 2 mps 747 mmHg 89%
    22:00 -2°C° 0 mm 2 mps 747 mmHg 90%
    23:00 0°C° 0 mm 1 mps 747 mmHg 90%

    Mañana, 24 Marzo, Domingo

    Tiempo Temperatura Precipitaciones Viento Presión Humedad
    00:00 0°C° 0 mm 1 mps 747 mmHg 89%
    01:00 0°C° 0 mm 1 mps 747 mmHg 87%
    02:00 0°C° 0 mm 1 mps 746 mmHg 86%
    03:00 -1°C° 0 mm 1 mps 746 mmHg 86%
    04:00 -2°C° 0 mm 1 mps 745 mmHg 86%
    05:00 -2°C° 0 mm 1 mps 745 mmHg 86%
    06:00 -4°C° 0 mm 2 mps 744 mmHg 86%
    07:00 -4°C° 0 mm 3 mps 744 mmHg 86%
    08:00 -2°C° 0 mm 3 mps 743 mmHg 87%
    09:00 -2°C° 0.2 mm 3 mps 743 mmHg 90%
    10:00 -2°C° 0.2 mm 4 mps 742 mmHg 93%
    11:00 -2°C° 0.2 mm 4 mps 742 mmHg 96%
    12:00 -2°C° 0.3 mm 4 mps 741 mmHg 96%
    13:00 -1°C° 0.3 mm 5 mps 741 mmHg 97%
    14:00 -1°C° 0.3 mm 5 mps 740 mmHg 97%
    15:00 -1°C° 0.1 mm 4 mps 740 mmHg 97%
    16:00 -1°C° 0.1 mm 4 mps 739 mmHg 97%
    17:00 -1°C° 0.1 mm 4 mps 739 mmHg 96%
    18:00 -1°C° 0 mm 4 mps 739 mmHg 95%
    19:00 -2°C° 0 mm 4 mps 739 mmHg 93%
    20:00 -2°C° 0 mm 4 mps 740 mmHg 91%
    21:00 -3°C° 0 mm 4 mps 740 mmHg 90%
    22:00 -3°C° 0 mm 4 mps 740 mmHg 88%
    23:00 -2°C° 0 mm 3 mps 740 mmHg 87%

    Pasado mañana, 25 Marzo, Lunes

    Tiempo Temperatura Precipitaciones Viento Presión Humedad
    00:00 -4°C° 0 mm 3 mps 740 mmHg 88%
    01:00 -4°C° 0 mm 3 mps 740 mmHg 88%
    02:00 -5°C° 0 mm 3 mps 740 mmHg 89%
    03:00 -5°C° 0 mm 3 mps 740 mmHg 88%
    04:00 -5°C° 0 mm 3 mps 740 mmHg 88%
    05:00 -6°C° 0 mm 3 mps 740 mmHg 88%
    06:00 -5°C° 0 mm 3 mps 740 mmHg 86%
    07:00 -4°C° 0 mm 4 mps 741 mmHg 84%
    08:00 -3°C° 0 mm 4 mps 741 mmHg 82%
    09:00 -2°C° 0 mm 4 mps 741 mmHg 84%
    10:00 0°C° 0 mm 3 mps 741 mmHg 86%
    11:00 0°C° 0 mm 3 mps 741 mmHg 88%
    12:00 +1°C° 0 mm 3 mps 741 mmHg 87%
    13:00 +1°C° 0 mm 3 mps 740 mmHg 86%
    14:00 +2°C° 0 mm 3 mps 740 mmHg 85%
    15:00 +1°C° 0 mm 3 mps 740 mmHg 84%
    16:00 +1°C° 0 mm 3 mps 740 mmHg 83%
    17:00 0°C° 0 mm 3 mps 740 mmHg 82%
    18:00 -1°C° 0 mm 3 mps 741 mmHg 83%
    19:00 -1°C° 0 mm 3 mps 741 mmHg 83%
    20:00 -2°C° 0 mm 3 mps 741 mmHg 84%
    21:00 -2°C° 0 mm 3 mps 741 mmHg 83%
    22:00 -2°C° 0 mm 3 mps 741 mmHg 83%
    23:00 -2°C° 0 mm 3 mps 741 mmHg 83%

    26 Marzo, Martes

    Tiempo Temperatura Precipitaciones Viento Presión Humedad
    00:00 -2°C° 0 mm 3 mps 741 mmHg 82%
    01:00 -2°C° 0 mm 3 mps 741 mmHg 82%
    02:00 -3°C° 0 mm 4 mps 741 mmHg 82%
    03:00 -3°C° 0.1 mm 4 mps 740 mmHg 84%
    04:00 -3°C° 0.1 mm 4 mps 740 mmHg 86%
    05:00 -3°C° 0.1 mm 4 mps 740 mmHg 88%
    06:00 -2°C° 0.1 mm 4 mps 739 mmHg 89%
    07:00 -2°C° 0.1 mm 4 mps 739 mmHg 89%
    08:00 -1°C° 0.1 mm 4 mps 739 mmHg 90%
    09:00 -1°C° 0.3 mm 4 mps 739 mmHg 92%
    10:00 -1°C° 0.3 mm 4 mps 738 mmHg 93%
    11:00 0°C° 0.3 mm 4 mps 738 mmHg 95%
    12:00 0°C° 0 mm 4 mps 737 mmHg 94%
    13:00 0°C° 0 mm 4 mps 737 mmHg 94%
    14:00 +1°C° 0 mm 4 mps 736 mmHg 93%
    15:00 0°C° 0.1 mm 4 mps 736 mmHg 93%
    16:00 0°C° 0.1 mm 4 mps 735 mmHg 94%
    17:00 -1°C° 0.1 mm 4 mps 735 mmHg 94%
    18:00 -1°C° 0.5 mm 4 mps 735 mmHg 94%
    19:00 -1°C° 0.5 mm 5 mps 734 mmHg 94%
    20:00 -1°C° 0.5 mm 5 mps 734 mmHg 95%
    21:00 -1°C° 0 mm 5 mps 734 mmHg 94%
    22:00 -1°C° 0 mm 5 mps 733 mmHg 93%
    23:00 -2°C° 0 mm 6 mps 733 mmHg 92%

    27 Marzo, Miércoles

    Tiempo Temperatura Precipitaciones Viento Presión Humedad
    00:00 -3°C° 0.1 mm 6 mps 733 mmHg 91%
    01:00 -3°C° 0.1 mm 6 mps 733 mmHg 91%
    02:00 -4°C° 0.1 mm 6 mps 733 mmHg 90%
    03:00 -4°C° 0.1 mm 6 mps 732 mmHg 89%
    04:00 -5°C° 0.1 mm 6 mps 732 mmHg 89%
    05:00 -5°C° 0.1 mm 6 mps 732 mmHg 88%
    06:00 -5°C° 0 mm 5 mps 733 mmHg 88%
    07:00 -3°C° 0 mm 4 mps 733 mmHg 88%
    08:00 -2°C° 0 mm 3 mps 733 mmHg 89%
    09:00 -2°C° 0.4 mm 4 mps 734 mmHg 90%
    10:00 -2°C° 0.4 mm 5 mps 735 mmHg 91%
    11:00 -2°C° 0.4 mm 6 mps 736 mmHg 92%
    12:00 -2°C° 0.3 mm 7 mps 736 mmHg 90%
    13:00 -2°C° 0.3 mm 8 mps 737 mmHg 88%
    14:00 -2°C° 0.3 mm 8 mps 738 mmHg 86%
    15:00 -2°C° 0.1 mm 8 mps 739 mmHg 85%
    16:00 -2°C° 0.1 mm 8 mps 740 mmHg 84%
    17:00 -2°C° 0.1 mm 8 mps 741 mmHg 83%
    18:00 -4°C° 0 mm 8 mps 742 mmHg 83%
    19:00 -3°C° 0 mm 7 mps 743 mmHg 83%
    20:00 -4°C° 0 mm 7 mps 744 mmHg 84%
    21:00 -4°C° 0 mm 7 mps 744 mmHg 84%
    22:00 -4°C° 0 mm 6 mps 745 mmHg 85%
    23:00 -5°C° 0 mm 6 mps 745 mmHg 86%

    28 Marzo, Jueves

    Tiempo Temperatura Precipitaciones Viento Presión Humedad
    00:00 -5°C° 0 mm 6 mps 746 mmHg 86%
    01:00 -6°C° 0 mm 6 mps 746 mmHg 85%
    02:00 -6°C° 0 mm 5 mps 746 mmHg 85%
    03:00 -6°C° 0 mm 5 mps 746 mmHg 84%
    04:00 -7°C° 0 mm 5 mps 746 mmHg 84%
    05:00 -7°C° 0 mm 5 mps 747 mmHg 83%
    06:00 -6°C° 0.1 mm 6 mps 747 mmHg 84%
    07:00 -6°C° 0.1 mm 6 mps 747 mmHg 85%
    08:00 -5°C° 0.1 mm 6 mps 747 mmHg 85%
    09:00 -4°C° 0.1 mm 6 mps 747 mmHg 85%
    10:00 -3°C° 0.1 mm 6 mps 747 mmHg 84%
    11:00 -3°C° 0.1 mm 6 mps 747 mmHg 83%
    12:00 -2°C° 0.1 mm 6 mps 747 mmHg 83%
    13:00 -2°C° 0.1 mm 6 mps 746 mmHg 83%
    14:00 -1°C° 0.1 mm 6 mps 746 mmHg 83%
    15:00 -1°C° 0 mm 6 mps 746 mmHg 84%
    16:00 -1°C° 0 mm 5 mps 746 mmHg 85%
    17:00 -1°C° 0 mm 5 mps 746 mmHg 86%
    18:00 -1°C° 0 mm 5 mps 745 mmHg 87%
    19:00 -1°C° 0 mm 5 mps 745 mmHg 89%
    20:00 -1°C° 0 mm 5 mps 745 mmHg 90%
    21:00 -1°C° 0.2 mm 5 mps 744 mmHg 89%
    22:00 -2°C° 0.2 mm 6 mps 743 mmHg 89%
    23:00 -2°C° 0.2 mm 6 mps 743 mmHg 88%
    Mostrar más